Ангутиха

Россия / Красноярский край     66°12′47″N   86°56′35″E
темп.,
°C
ветер,
м/с
пор.,
м/с
влажн.,
%
обл.,
%
осадки,
мм/ч
давл.,
гПа
погр.,
м
14 мая, пт
пт1401:00+1с3498100 3.2 1005443
04:000с91598100 1.7 1007616
07:00−2ссз9158414 2.1 1011521
10:00−1ссз8128713 0.0 1012606
13:000ссз688176 0.0 1012891
16:00+1сз4573100 0.0 10111016
19:000зсз348297 0.1 1010579
22:00−1сз2397100 0.5 1009278
15 мая, сб
сб1501:00−2с3597100 1.3 1008323
04:00−4ссз499414 0.1 1008301
07:00−3ссз6108881 0.1 1010584
10:00−2ссз7975100 0.0 10111067
13:00−1ссз7966100 0.1 10131397
16:00−1ссз7960100 0.1 10151555
19:00−2ссз796076 0.1 10171291
22:00−4ссз58735 0.0 1017659
16 мая, вс
вс1601:00−6ссз588424 0.0 1018485
04:00−7ссз58835 0.0 1019409
07:00−6ссз467670 0.0 1020533
10:00−4ссз566388 0.0 1020996
13:00−2ссз5654100 0.0 10201380
16:00−1ссз5550100 0.1 10201595
19:00−1ссз4552100 0.1 10201281
22:00−3с36695 0.0 1020315
17 мая, пн
пн1701:00−5с25835 0.0 1020204
04:00−5с23855 0.0 1020163
07:00−4ссз22665 0.0 1021439
10:00−1ссз11495 0.0 1020958
13:00+1с114174 0.0 10191564
16:00+2с2139100 0.0 10191840
19:00+1ссв434694 0.1 10181400
22:00−1св45649 0.0 1018409
18 мая, вт
вт1801:00−3св35765 0.0 1018213
04:00−3ссв34773 0.0 1018162
07:00−2ссв34608 0.0 1018546
10:00+1ссв44465 0.0 10171127
13:00+2ссв44405 0.0 10171603
16:00+3с554161 0.0 10171710
19:00+1с655155 0.0 10181385
22:00−2с67685 0.0 1019588